User: anonymous   Login
Location: Unspecified
(0.0000°N, 0.0000°E)
Time: 11:35:12
(UTC+00:00)
Language:

P83-1 Hilat - Orbit

View from above orbital plane
View from above orbital plane
View from above satellite
View from above satellite

Ground track
Ground track

The orbit data is extracted from the following two-line orbital elements,

1 14154U 83063A   17328.57209583 +.00000125 +00000-0 +37062-4 0  9995
2 14154 082.0245 179.8427 0041097 023.6277 034.1363 14.36317303798548
Epoch (UTC): 24 November 2017 13:43:49
Eccentricity: 0.0041097
inclination: 82.0245°
perigee height: 741 km
apogee height: 800 km
right ascension of ascending node: 179.8427°
argument of perigee: 23.6277°
revolutions per day: 14.36317303
mean anomaly at epoch: 34.1363°
orbit number at epoch: 79854

The dashed part of the orbit path shows where the satellite is in the earth's shadow,  

DLR